| time (UTC) | temp F | wind direction | speed MPH | gust MPH | rain 1hr in | rain 24hr in | rain mn in | humidity % | barometer mb |
| 20260505003006 | 65 | 220 | 0.0 | 1.0 | 0.00 | 0.00 | 0.00 | 46 | 1014.7 |
| 20260505001505 | 67 | 220 | 0.0 | 1.0 | 0.00 | 0.00 | 0.00 | 44 | 1014.6 |
| 20260505000005 | 69 | 220 | 0.0 | 1.0 | 0.00 | 0.00 | 0.00 | 41 | 1014.6 |
| 20260504234505 | 71 | 180 | 0.0 | 2.0 | 0.00 | 0.00 | 0.00 | 36 | 1014.5 |
| 20260504233004 | 73 | 178 | 0.0 | 3.0 | 0.00 | 0.00 | 0.00 | 35 | 1014.4 |
| 20260504231503 | 74 | 136 | 1.0 | 4.0 | 0.00 | 0.00 | 0.00 | 34 | 1014.2 |
| 20260504230005 | 74 | 171 | 0.0 | 4.0 | 0.00 | 0.00 | 0.00 | 34 | 1014.2 |
| 20260504224508 | 75 | 200 | 1.0 | 7.0 | 0.00 | 0.00 | 0.00 | 33 | 1014.2 |
| 20260504223003 | 78 | 225 | 1.0 | 5.0 | 0.00 | 0.00 | 0.00 | 31 | 1014.2 |
| 20260504221501 | 79 | 159 | 1.0 | 5.0 | 0.00 | 0.00 | 0.00 | 31 | 1014.2 |
| 20260504220002 | 78 | 224 | 2.0 | 6.0 | 0.00 | 0.00 | 0.00 | 27 | 1014.2 |
| 20260504214600 | 80 | 148 | 1.0 | 5.0 | 0.00 | 0.00 | 0.00 | 28 | 1014.2 |
| 20260504213103 | 80 | 181 | 3.0 | 9.0 | 0.00 | 0.00 | 0.00 | 29 | 1014.2 |
| 20260504211601 | 80 | 232 | 2.0 | 8.0 | 0.00 | 0.00 | 0.00 | 30 | 1014.2 |
| 20260504204555 | 78 | 198 | 2.0 | 9.0 | 0.00 | 0.00 | 0.00 | 30 | 1014.4 |
| 20260504203051 | 80 | 267 | 2.0 | 4.0 | 0.00 | 0.00 | 0.00 | 31 | 1014.6 |
| 20260504201549 | 79 | 245 | 1.0 | 5.0 | 0.00 | 0.00 | 0.00 | 30 | 1014.8 |
| 20260504200053 | 79 | 186 | 1.0 | 4.0 | 0.00 | 0.00 | 0.00 | 32 | 1015.1 |
| 20260504194542 | 79 | 157 | 2.0 | 5.0 | 0.00 | 0.00 | 0.00 | 31 | 1015.3 |
| 20260504193043 | 78 | 179 | 2.0 | 6.0 | 0.00 | 0.00 | 0.00 | 32 | 1015.4 |
| 20260504191539 | 78 | 257 | 1.0 | 5.0 | 0.00 | 0.00 | 0.00 | 31 | 1015.5 |
| 20260504190037 | 77 | 216 | 2.0 | 7.0 | 0.00 | 0.00 | 0.00 | 31 | 1015.7 |
| 20260504184538 | 77 | 180 | 1.0 | 4.0 | 0.00 | 0.00 | 0.00 | 34 | 1015.9 |
| 20260504183036 | 77 | 200 | 3.0 | 7.0 | 0.00 | 0.00 | 0.00 | 34 | 1016.1 |
| 20260504181532 | 77 | 24 | 1.0 | 5.0 | 0.00 | 0.00 | 0.00 | 31 | 1016.3 |
| 20260504180029 | 75 | 250 | 2.0 | 6.0 | 0.00 | 0.00 | 0.00 | 35 | 1016.5 |
| 20260504174527 | 76 | 213 | 2.0 | 5.0 | 0.00 | 0.00 | 0.00 | 34 | 1016.5 |
| 20260504173025 | 75 | 360 | 2.0 | 5.0 | 0.00 | 0.00 | 0.00 | 35 | 1016.6 |
| 20260504171522 | 73 | 56 | 1.0 | 7.0 | 0.00 | 0.00 | 0.00 | 34 | 1017.0 |
| 20260504150103 | 65 | 350 | 1.0 | 4.0 | 0.00 | 0.00 | 0.00 | 55 | 1018.4 |
| 20260504081504 | 44 | 178 | 0.0 | 0.0 | 0.00 | 0.00 | 0.00 | 86 | 1017.7 |
| 20260504044529 | 52 | 177 | 0.0 | 2.0 | 0.00 | 0.00 | 0.00 | 72 | 1017.6 |
| 20260504043037 | 52 | 177 | 0.0 | 2.0 | 0.00 | 0.00 | 0.00 | 73 | 1017.7 |
| 20260504041532 | 52 | 177 | 0.0 | 0.0 | 0.00 | 0.00 | 0.00 | 72 | 1017.7 |
| 20260504040025 | 52 | 177 | 0.0 | 0.0 | 0.00 | 0.00 | 0.00 | 72 | 1017.9 |
| 20260504034525 | 52 | 177 | 0.0 | 1.0 | 0.00 | 0.00 | 0.00 | 71 | 1018.1 |
| 20260504033024 | 52 | 177 | 0.0 | 1.0 | 0.00 | 0.00 | 0.00 | 71 | 1018.1 |
| 20260504031526 | 52 | 177 | 0.0 | 1.0 | 0.00 | 0.00 | 0.00 | 70 | 1018.1 |
| 20260504030023 | 53 | 177 | 0.0 | 1.0 | 0.00 | 0.00 | 0.00 | 70 | 1018.0 |
| 20260504024522 | 53 | 177 | 0.0 | 1.0 | 0.00 | 0.00 | 0.00 | 69 | 1018.0 |
| 20260504023022 | 54 | 177 | 0.0 | 0.0 | 0.00 | 0.00 | 0.00 | 67 | 1017.9 |
| 20260504021522 | 55 | 177 | 0.0 | 1.0 | 0.00 | 0.00 | 0.00 | 65 | 1017.7 |
| 20260504020034 | 55 | 177 | 0.0 | 1.0 | 0.00 | 0.00 | 0.00 | 63 | 1017.6 |
| 20260504014521 | 56 | 177 | 0.0 | 1.0 | 0.00 | 0.00 | 0.00 | 63 | 1017.4 |
| 20260504013025 | 56 | 177 | 0.0 | 1.0 | 0.00 | 0.00 | 0.00 | 63 | 1017.1 |
| 20260504011520 | 56 | 177 | 0.0 | 0.0 | 0.00 | 0.00 | 0.00 | 59 | 1017.1 |
| 20260504010019 | 57 | 177 | 0.0 | 0.0 | 0.00 | 0.00 | 0.00 | 57 | 1017.0 |
| 20260504004534 | 58 | 177 | 0.0 | 1.0 | 0.00 | 0.00 | 0.00 | 57 | 1016.8 |